Wind_Speed
6 7 7 5 2 3 4 3 7 5 7 7 11 14 14 20 7 5 13 9 12 7 1 8 7 6 6 6 7 9 9 9 8 7 7 6 7 7 6 6 4 6 7 9 9 8 8 8 10
4 1 3 6 3 2 3 7 9 9 12 9 8 7 18 12 15 16 14 12 12 5 8 4 7 7 7 6 6 8 8 9 9 8 8 8 9 8 7 6 5 4 4 5 6 8 8 8 8
2 1 4 4 4 4 5 7 9 12 9 4 6 9 7 5 11 11 12 14 13 11 8 3 5 5 6 6 6 6 7 7 8 8 8 8 8 8 8 8 8 6 5 5 5 6 6 8 8
3 3 7 4 2 11 8 10 14 8 5 0 7 10 8 10 8 14 17 14 13 9 3 7 6 6 6 7 6 5 6 6 7 7 7 8 8 8 9 10 10 10 9 8 8 7 7 8 8
3 6 5 7 2 6 10 19 15 7 9 8 2 8 10 11 14 18 16 14 12 10 1 7 8 8 9 10 9 9 9 10 10 9 8 8 8 8 8 8 9 9 10 10 11 11 11 11 10
6 6 6 9 6 3 9 17 13 12 10 8 5 12 10 14 15 16 15 13 13 5 3 2 8 8 8 9 7 9 9 6 7 7 8 8 7 7 8 8 9 9 11 12 12 12 13 13 13
6 6 11 11 4 8 4 16 8 5 6 9 2 8 14 17 16 15 14 13 10 9 7 2 3 5 5 6 5 4 5 5 6 7 8 8 6 5 4 7 7 8 10 9 9 11 10 12 13
6 4 12 11 13 13 9 8 8 1 6 9 1 1 12 20 19 16 15 12 12 10 10 6 8 3 1 6 4 4 4 5 5 7 8 8 4 5 4 6 7 8 10 8 9 9 9 10 11
6 3 6 14 7 6 16 7 4 5 8 4 4 9 13 23 20 17 15 13 13 10 14 12 9 4 5 4 4 4 5 4 3 4 8 6 6 7 5 6 6 8 9 10 10 10 8 4 7
7 4 9 7 8 2 14 15 12 5 7 7 7 5 14 20 20 20 17 15 13 13 8 15 6 7 3 3 3 2 1 4 3 6 6 3 5 6 6 6 6 6 7 8 10 9 10 10 9
9 5 11 4 9 7 13 10 14 7 7 10 20 16 15 17 19 18 17 14 18 18 12 6 7 6 6 4 5 7 3 2 6 8 2 4 3 3 3 6 7 7 7 8 10 10 11 11 10
5 18 17 4 2 3 9 12 9 10 5 6 4 16 20 18 19 19 17 16 18 19 15 9 9 5 6 6 9 8 7 5 3 5 3 3 4 5 6 8 9 10 11 11 12 12 12 11 10
9 13 15 5 1 3 10 7 2 12 6 4 5 12 17 17 18 17 17 12 17 13 14 13 10 12 9 11 11 10 7 5 4 5 6 6 7 7 8 9 10 12 13 13 13 14 15 14 13
6 3 7 4 1 3 2 5 4 9 10 5 6 11 14 15 17 16 14 12 9 12 11 15 12 12 11 9 10 10 9 4 6 7 7 7 7 7 7 7 10 12 14 15 16 18 18 19 18
4 2 4 3 2 6 11 5 9 6 10 8 8 11 13 15 15 15 14 13 12 13 14 13 15 12 12 11 9 7 7 7 7 6 6 6 6 5 5 7 9 12 15 16 18 20 21 22 22
4 2 3 2 4 2 5 4 9 7 6 10 10 13 14 15 16 14 15 14 15 17 16 17 14 14 13 9 7 8 8 6 5 4 3 3 3 4 5 8 11 13 15 18 20 22 24 25 27
6 6 8 7 5 2 5 5 5 2 7 9 9 11 17 15 14 14 16 16 15 16 18 16 16 14 10 7 8 7 6 5 4 3 3 2 2 3 6 8 10 13 16 18 20 22 24 28 30
11 13 9 11 7 4 4 5 17 27 14 9 9 11 12 18 17 15 18 16 16 15 16 11 15 14 13 12 10 10 8 7 5 6 6 6 7 6 7 9 11 14 17 19 21 23 25 27 29
14 5 5 5 5 5 8 3 10 16 18 11 10 12 12 18 18 18 18 17 15 15 14 12 15 15 13 12 12 8 7 6 8 9 9 9 10 11 12 13 13 15 18 21 22 24 27 30 28
13 8 10 10 6 4 4 6 12 16 0 5 6 7 10 12 18 21 18 17 17 16 15 14 13 14 14 11 8 3 6 6 9 11 14 13 14 14 14 13 16 17 19 22 23 25 28 29 27
10 6 4 8 6 3 3 5 9 3 9 3 1 3 8 12 17 24 21 20 17 17 16 14 14 15 14 11 10 14 14 12 16 15 17 16 15 15 17 18 19 20 21 24 25 26 26 25 26
8 10 2 7 5 5 7 4 4 11 8 6 12 9 8 5 5 23 23 21 19 16 15 14 13 12 14 13 15 16 14 13 10 10 9 8 13 19 19 20 20 24 24 26 26 27 27 26 28
2 5 5 6 7 6 8 2 2 9 8 8 11 7 5 3 5 16 20 19 16 16 14 15 13 13 12 14 16 16 16 16 16 17 19 20 21 16 16 18 23 24 25 27 29 29 28 27 27
9 5 4 1 2 4 12 8 0 3 5 7 12 7 5 2 4 10 15 14 14 14 15 14 16 15 15 16 18 19 19 19 20 17 17 16 15 16 19 21 21 24 28 31 31 30 29 29 30
6 7 3 3 3 3 5 5 5 7 7 7 10 10 9 8 9 14 14 14 13 12 15 18 18 18 17 17 17 18 19 20 23 21 20 20 21 23 24 24 26 30 31 30 29 29 30 30 31
7 3 2 3 3 4 2 4 4 8 11 12 13 12 12 12 9 9 6 5 7 10 10 8 8 11 11 12 14 15 18 22 24 18 19 21 23 23 24 26 29 30 31 30 29 30 31 31 31
5 3 2 3 5 2 5 5 4 8 8 14 15 13 14 14 12 12 11 9 8 9 10 9 9 10 13 14 17 16 13 12 14 14 20 22 22 24 28 29 31 30 30 29 30 31 32 31 31
4 3 1 2 2 4 6 6 6 9 8 9 11 13 14 14 13 12 11 9 6 4 3 1 1 4 7 9 11 13 16 17 17 17 17 19 24 25 26 28 29 29 30 31 31 32 32 31 31
3 2 3 1 2 1 4 3 5 9 9 9 14 15 13 12 12 11 9 7 6 5 6 6 6 9 8 10 13 14 13 14 17 20 20 20 22 25 28 29 31 31 32 32 32 31 30 30 30
4 3 7 2 2 2 2 1 5 9 10 17 16 12 11 10 9 7 6 5 4 4 5 8 10 11 12 14 17 15 13 16 17 18 20 24 27 27 29 30 31 32 31 30 30 31 32 31 30
Wind_Direction
331 353 31 293 282 188 119 71 114 133 94 63 54 59 77 47 7 89 133 129 125 167 176 130 118 90 85 88 76 71 70 71 72 68 66 58 46 54 56 49 54 53 49 55 48 45 46 45 44
326 349 255 271 241 68 92 151 95 85 92 98 60 54 76 83 90 119 132 135 131 122 140 104 119 90 96 100 87 79 74 72 71 67 64 61 57 57 55 50 47 59 48 42 49 46 30 36 35
348 232 267 212 234 175 140 113 108 115 127 156 123 62 87 86 87 117 140 136 127 159 186 205 134 100 100 95 92 88 82 74 69 66 60 57 57 57 55 52 51 51 40 27 18 11 10 15 20
311 265 261 247 283 313 125 116 126 138 137 225 120 99 89 89 127 143 132 136 137 169 175 156 137 115 106 102 94 86 82 78 67 61 56 50 47 50 52 47 43 41 39 35 24 13 1 350 2
296 258 250 242 156 198 117 127 149 173 148 160 231 113 101 101 127 130 136 139 135 161 173 128 118 107 103 101 81 87 89 83 73 63 57 53 52 50 47 45 41 36 34 34 30 24 21 17 11
266 245 264 258 339 81 114 142 176 159 145 101 164 115 132 144 144 143 141 139 145 132 143 131 127 117 110 111 95 93 89 74 57 54 47 43 44 44 47 52 52 41 34 34 32 30 27 25 24
249 280 268 278 117 300 145 154 160 147 150 152 24 124 141 153 161 152 149 147 145 152 166 11 119 107 120 115 107 97 73 61 52 52 28 19 17 21 17 22 26 21 8 4 7 9 11 16 14
275 244 276 275 165 210 138 153 109 190 84 114 138 83 158 166 165 161 159 154 155 164 194 196 163 155 189 154 121 79 36 15 24 18 10 345 355 5 8 1 357 4 354 351 359 1 1 10 6
272 269 257 261 240 133 140 131 136 143 120 140 137 66 151 160 163 167 169 169 167 172 178 150 168 194 189 141 127 47 18 13 346 7 53 47 359 10 21 359 350 353 346 349 351 355 351 355 346
209 232 254 303 69 302 159 160 160 158 182 159 145 125 141 157 170 177 182 168 171 162 160 155 222 220 153 219 118 58 318 92 83 114 115 32 27 36 12 9 8 358 355 352 350 348 340 338 341
211 236 265 342 316 147 162 182 161 203 175 197 186 179 171 174 183 187 189 196 192 178 159 217 247 197 231 242 91 70 83 83 136 113 90 120 80 37 48 20 30 27 22 14 9 8 1 1 358
292 268 261 338 257 252 160 184 168 205 112 131 127 190 172 182 190 193 196 205 188 172 177 123 151 190 182 159 154 169 166 174 151 150 150 122 104 74 55 44 39 35 30 23 17 10 360 359 353
228 266 296 57 6 274 166 189 175 208 186 182 159 162 174 187 194 197 202 199 158 161 173 185 173 175 189 163 184 173 161 188 162 128 118 99 89 81 63 45 38 32 28 21 15 6 0 354 348
1 169 265 30 261 8 147 107 39 220 196 177 177 179 185 193 197 197 201 183 166 172 165 179 175 162 173 175 186 187 184 173 141 128 114 106 94 79 73 50 38 30 25 21 16 9 2 357 350
13 255 82 232 199 52 344 179 229 163 171 181 186 190 191 194 196 196 190 188 188 185 173 164 171 164 170 185 197 174 161 158 144 129 116 104 94 80 56 38 28 21 17 11 7 2 358 353 348
179 252 161 101 63 61 60 296 33 123 178 200 194 191 192 195 196 191 188 187 189 173 167 180 169 167 185 208 174 161 160 153 146 150 140 110 73 46 28 13 6 7 3 359 357 353 350 347 345
187 197 215 153 107 106 22 339 4 333 254 251 208 214 187 194 199 198 191 184 183 178 182 197 166 178 182 174 161 167 166 166 192 208 230 245 320 355 346 348 349 349 349 348 346 344 343 342 340
197 211 238 204 171 133 132 269 299 307 242 231 253 243 209 190 196 197 190 184 185 178 194 203 164 181 189 181 174 189 192 194 207 217 251 285 292 311 321 329 330 332 336 337 337 337 337 336 334
220 186 219 121 124 166 199 243 311 308 230 219 239 269 279 202 198 194 183 181 187 184 188 182 180 189 189 183 199 196 209 228 240 234 249 252 267 297 307 314 317 321 324 328 332 330 329 330 331
237 209 188 90 176 146 146 232 243 264 15 45 9 323 279 268 182 183 179 181 191 188 189 190 186 190 204 197 211 202 268 250 271 274 272 277 281 283 292 297 301 308 314 321 325 326 325 323 325
223 252 202 162 155 214 126 294 251 144 129 118 45 353 299 276 195 180 178 185 194 195 193 194 198 203 211 225 200 218 217 225 238 262 280 283 281 286 290 294 298 303 310 316 320 320 318 312 311
213 207 228 135 153 230 151 267 246 156 160 135 61 28 329 289 253 183 181 185 195 200 204 197 208 220 222 231 229 242 248 261 277 298 273 266 261 285 289 293 296 302 308 311 312 309 304 298 298
101 86 174 197 200 257 196 251 355 140 150 95 78 41 338 279 231 177 176 183 194 201 209 210 209 220 238 239 254 257 252 253 256 262 267 267 280 285 281 278 291 298 302 302 302 301 299 297 293
130 145 106 98 247 252 239 192 305 124 82 87 85 66 48 65 150 156 169 178 190 205 209 217 214 218 234 244 249 258 271 267 258 257 271 277 275 267 265 276 279 281 290 296 297 297 295 294 294
230 157 157 190 179 239 88 115 116 106 88 105 105 87 86 97 115 128 140 156 173 194 211 226 235 230 231 246 259 263 261 270 272 266 262 261 259 260 272 278 281 290 294 295 295 293 292 291 290
204 253 260 259 164 131 189 228 141 113 120 111 107 108 101 105 114 112 147 180 208 227 245 260 256 267 274 256 254 252 258 260 270 264 255 261 271 281 284 289 290 292 293 293 293 291 290 288 284
150 212 2 343 295 333 182 91 102 138 139 131 114 112 108 107 111 118 131 149 162 180 197 212 228 240 242 246 258 264 270 279 291 278 276 283 287 288 291 292 295 297 298 297 295 292 291 290 288
19 342 117 229 240 223 240 144 144 160 150 135 129 125 123 124 122 118 115 111 109 106 91 29 261 251 274 268 255 249 250 256 264 278 282 278 285 296 297 296 296 297 296 296 294 291 289 287 286
148 213 243 323 257 6 336 71 114 160 153 148 137 143 139 128 119 114 105 83 66 28 351 336 313 301 282 271 269 271 277 274 270 278 289 295 291 289 291 291 292 292 291 292 290 290 289 286 285
333 294 191 174 204 219 124 180 349 108 136 139 141 138 135 136 132 125 113 94 70 18 334 321 320 312 296 284 292 295 286 283 286 286 287 287 292 292 293 294 294 293 294 294 292 289 287 286 286
Height
1514 1513 1514 1516 1522 1515 1515 1516 1507 1513 1513 1515 1516 1514 1521 1523 1525 1540 1537 1538 1539 1537 1539 1540 1541 1542 1542 1542 1542 1542 1542 1542 1542 1542 1542 1543 1543 1543 1543 1543 1543 1543 1543 1543 1543 1543 1543 1543 1543
1514 1516 1517 1515 1520 1525 1518 1506 1512 1512 1514 1517 1518 1518 1521 1528 1528 1533 1536 1539 1540 1540 1539 1540 1542 1542 1542 1543 1543 1543 1543 1544 1544 1544 1544 1544 1544 1544 1544 1544 1544 1544 1544 1544 1544 1544 1544 1544 1544
1515 1516 1516 1511 1509 1529 1518 1505 1509 1513 1515 1516 1519 1520 1522 1529 1531 1534 1535 1539 1541 1540 1541 1542 1543 1543 1543 1543 1544 1544 1544 1545 1545 1545 1545 1545 1545 1545 1545 1545 1545 1545 1545 1544 1544 1544 1544 1544 1545
1517 1518 1515 1513 1516 1521 1503 1505 1509 1513 1516 1515 1516 1522 1528 1530 1531 1533 1536 1539 1541 1539 1541 1542 1543 1543 1544 1544 1544 1545 1546 1546 1546 1547 1547 1546 1546 1546 1546 1546 1546 1546 1546 1546 1545 1545 1545 1545 1545
1517 1516 1513 1509 1506 1501 1497 1504 1510 1512 1514 1516 1516 1521 1527 1531 1532 1534 1537 1539 1541 1539 1541 1542 1543 1544 1545 1545 1546 1546 1547 1547 1548 1548 1547 1547 1547 1547 1547 1547 1547 1547 1547 1547 1546 1546 1546 1546 1545
1517 1511 1513 1513 1521 1496 1497 1504 1508 1509 1514 1517 1517 1520 1528 1531 1533 1536 1538 1539 1541 1540 1542 1543 1544 1545 1546 1547 1547 1547 1548 1548 1548 1548 1548 1548 1548 1548 1548 1548 1548 1548 1548 1548 1548 1547 1547 1547 1546
1515 1513 1511 1506 1513 1508 1499 1502 1506 1508 1512 1515 1516 1518 1527 1530 1533 1536 1538 1540 1541 1542 1542 1544 1545 1546 1547 1547 1548 1548 1549 1549 1549 1549 1549 1549 1549 1549 1548 1549 1549 1549 1549 1549 1549 1548 1548 1548 1547
1513 1511 1510 1501 1517 1508 1497 1502 1505 1509 1513 1515 1516 1516 1523 1527 1531 1535 1537 1539 1540 1542 1541 1541 1545 1546 1547 1547 1548 1549 1550 1550 1550 1550 1549 1549 1549 1549 1549 1549 1548 1548 1549 1549 1548 1548 1548 1547 1547
1511 1514 1512 1502 1495 1495 1496 1502 1508 1510 1513 1515 1517 1518 1519 1524 1529 1533 1536 1538 1539 1540 1541 1543 1543 1546 1547 1548 1549 1550 1550 1550 1551 1550 1550 1549 1548 1548 1549 1548 1548 1548 1548 1548 1548 1548 1548 1547 1546
1508 1510 1503 1492 1488 1495 1495 1500 1507 1511 1512 1516 1518 1520 1523 1524 1528 1531 1534 1536 1539 1540 1541 1543 1542 1545 1546 1547 1548 1549 1550 1550 1550 1551 1551 1550 1549 1549 1548 1548 1548 1548 1547 1547 1546 1546 1546 1546 1545
1502 1506 1495 1493 1494 1494 1496 1499 1504 1508 1511 1511 1514 1517 1522 1525 1527 1529 1532 1534 1536 1538 1539 1541 1542 1544 1545 1547 1548 1548 1550 1549 1550 1550 1550 1550 1550 1549 1549 1548 1548 1547 1547 1546 1546 1545 1544 1544 1544
1506 1497 1496 1495 1498 1495 1496 1500 1503 1506 1508 1509 1511 1514 1518 1522 1525 1528 1530 1532 1532 1536 1538 1542 1542 1544 1545 1547 1549 1549 1549 1549 1549 1549 1549 1549 1549 1549 1548 1547 1547 1547 1546 1546 1545 1544 1543 1543 1542
1503 1498 1499 1496 1498 1496 1497 1500 1505 1505 1507 1509 1511 1514 1517 1521 1524 1527 1529 1531 1531 1533 1536 1539 1543 1543 1544 1546 1546 1547 1548 1547 1547 1548 1549 1549 1549 1548 1548 1547 1547 1546 1546 1545 1545 1543 1542 1541 1540
1497 1495 1499 1500 1501 1499 1500 1502 1505 1504 1506 1508 1511 1514 1517 1520 1523 1526 1527 1529 1530 1532 1535 1539 1542 1543 1543 1545 1545 1545 1546 1546 1547 1548 1548 1548 1548 1548 1548 1547 1546 1546 1546 1545 1544 1543 1542 1540 1539
1498 1502 1502 1504 1504 1503 1506 1505 1505 1504 1505 1508 1510 1513 1515 1518 1521 1523 1526 1528 1530 1532 1535 1540 1541 1542 1542 1542 1543 1545 1545 1546 1547 1547 1548 1548 1548 1548 1547 1547 1546 1546 1545 1544 1543 1542 1541 1539 1537
1502 1503 1513 1505 1504 1508 1508 1512 1501 1505 1507 1508 1509 1510 1514 1517 1519 1522 1524 1528 1530 1531 1535 1538 1540 1541 1540 1541 1543 1544 1545 1546 1547 1547 1547 1547 1547 1547 1546 1546 1545 1545 1544 1542 1541 1539 1538 1536 1534
1501 1511 1509 1508 1506 1506 1511 1512 1511 1509 1510 1508 1507 1508 1510 1514 1518 1521 1523 1526 1528 1529 1533 1535 1538 1540 1540 1541 1543 1544 1545 1546 1546 1546 1546 1546 1546 1546 1546 1545 1544 1543 1542 1541 1539 1538 1536 1533 1531
1498 1501 1500 1503 1502 1505 1513 1516 1513 1510 1510 1507 1508 1508 1508 1511 1515 1520 1522 1526 1528 1530 1531 1534 1537 1538 1539 1541 1543 1544 1545 1545 1546 1546 1545 1544 1544 1545 1544 1544 1543 1541 1540 1539 1537 1535 1533 1531 1528
1478 1485 1493 1499 1497 1505 1508 1508 1508 1507 1507 1504 1505 1506 1507 1507 1512 1517 1520 1524 1527 1530 1531 1533 1535 1537 1538 1540 1541 1542 1544 1544 1544 1544 1544 1544 1543 1543 1542 1542 1541 1539 1538 1536 1534 1532 1529 1527 1525
1474 1480 1493 1501 1502 1502 1504 1508 1504 1503 1503 1505 1504 1504 1505 1507 1508 1512 1517 1522 1526 1530 1531 1532 1534 1536 1537 1539 1540 1542 1543 1543 1543 1542 1542 1542 1541 1541 1540 1539 1538 1536 1534 1533 1531 1529 1525 1523 1522
1475 1481 1482 1491 1497 1498 1502 1508 1499 1491 1496 1501 1504 1504 1505 1504 1506 1508 1513 1519 1524 1528 1530 1531 1533 1535 1537 1538 1539 1540 1540 1541 1541 1541 1541 1540 1538 1538 1537 1536 1534 1533 1531 1529 1527 1525 1523 1519 1518
1484 1475 1481 1484 1499 1512 1499 1521 1491 1491 1498 1499 1504 1505 1505 1503 1504 1505 1510 1516 1521 1527 1529 1531 1532 1533 1535 1536 1537 1537 1538 1538 1539 1538 1537 1536 1535 1534 1533 1532 1530 1528 1526 1524 1523 1521 1519 1517 1514
1481 1479 1486 1489 1497 1500 1506 1515 1496 1490 1498 1503 1503 1506 1506 1503 1504 1505 1509 1514 1520 1524 1527 1528 1531 1532 1533 1533 1534 1535 1535 1535 1536 1536 1534 1533 1531 1530 1529 1528 1526 1524 1522 1520 1518 1515 1513 1511 1509
1479 1485 1486 1489 1497 1516 1494 1503 1500 1498 1500 1502 1504 1507 1506 1505 1505 1507 1510 1514 1519 1522 1525 1526 1528 1530 1531 1531 1531 1531 1530 1531 1530 1531 1530 1528 1527 1527 1525 1524 1522 1519 1517 1514 1511 1509 1507 1505 1503
1481 1489 1510 1518 1520 1515 1483 1494 1503 1499 1500 1502 1505 1508 1507 1506 1507 1508 1511 1515 1518 1520 1522 1523 1524 1525 1526 1527 1527 1527 1526 1525 1524 1525 1524 1523 1522 1521 1520 1518 1516 1514 1511 1508 1505 1502 1500 1498 1496
1486 1485 1497 1506 1507 1504 1490 1502 1508 1498 1501 1502 1506 1509 1509 1509 1509 1511 1513 1516 1518 1519 1520 1521 1521 1522 1523 1524 1524 1523 1522 1521 1520 1520 1519 1517 1517 1516 1514 1512 1509 1506 1504 1501 1498 1495 1493 1491 1489
1484 1493 1484 1489 1482 1497 1490 1499 1498 1498 1500 1503 1507 1509 1510 1511 1511 1513 1514 1515 1516 1517 1518 1519 1520 1521 1521 1521 1520 1520 1519 1518 1516 1515 1514 1513 1512 1511 1508 1506 1503 1500 1497 1494 1492 1488 1486 1483 1481
1482 1482 1496 1493 1506 1507 1484 1493 1500 1501 1501 1503 1507 1510 1511 1512 1513 1515 1516 1517 1517 1518 1518 1518 1519 1518 1518 1517 1516 1516 1515 1514 1513 1511 1510 1509 1506 1504 1501 1498 1496 1493 1490 1487 1485 1481 1479 1476 1474
1487 1487 1486 1488 1489 1503 1508 1508 1489 1495 1497 1501 1505 1509 1511 1513 1515 1516 1516 1517 1518 1518 1518 1517 1517 1516 1515 1514 1513 1513 1512 1512 1510 1508 1506 1504 1502 1499 1497 1493 1489 1486 1482 1480 1477 1473 1470 1468 1466
1480 1479 1480 1498 1494 1492 1501 1511 1489 1490 1494 1499 1504 1509 1511 1513 1515 1516 1517 1518 1518 1518 1517 1516 1515 1514 1512 1510 1509 1508 1507 1506 1505 1503 1501 1499 1495 1492 1489 1485 1482 1479 1476 1472 1469 1466 1463 1461 1458